"Pseudo-MPEC" for Roc4008

Created 2026 Aug 7 3:35:11 UT using Find_Orb

Click here for an explanation of pseudo-MPECs

 
 Astrometry: 
     Roc4008*KB2026 08 01.04092619 24 54.876-59 38 22.74   ~81DK       XNEOCPX89
     Roc4008 KB2026 08 01.04216419 24 56.179-59 38 33.90   ~81DK 17.0 GXNEOCPX89
     Roc4008 KB2026 08 01.04339119 24 57.403-59 38 43.80   ~81DK 17.0 GXNEOCPX89

Station data:
(X89) Rocca Observatory, Brasilia  (S15.844482 W47.782140)  Brazil.  Observer
   M. Andrade. 0.28-m f/2.0 reflector + CMO.

Orbital elements:  Roc4008
   Perihelion 2026 Jun 17.537904 +/- 36.1 TT = 12:54:34.9 (JD 2461209.037904)
Epoch 2026 Aug  1.0 TT = JDT 2461253.5   Earth MOID: 0.0056   Ma: 0.0486
M   5.013500211 +/- 26              (J2000 ecliptic)             AutoNEOCP
n   0.112758971 +/- 0.219           Peri.  105.870563 +/- 60
a   4.243282810 +/- 5.5             Node   125.648502 +/- 59
e   0.83879387 +/- 0.259            Incl.   43.444376 +/- 13
P   8.74084                H 21.91  G  0.15   U 11.7  SR
q 0.684043179 +/- 0.18    Q 7.802522441 +/- 36.5
From 3 observations 2026 Aug. 1 (3.5 min); mean residual 0".21
Residuals in arcseconds: 
260801 X89  .08-  .19+    260801 X89  .17+  .38-    260801 X89  .08-  .19+    

Ephemerides (geocentric):
Date (UTC) HH   RA             Dec           delta  r     elong  mag " sig PA
---- --------  ------------   ------------  ------ ------ -----  --- --------
2026 08 07 04  20 08 51.939   -63 34 32.35  .16532 1.1313 131.9 19.9  35d 156
2026 08 07 05  20 08 58.718   -63 34 52.33  .16608 1.1318 131.9 19.9  35d 156
2026 08 07 06  20 09 05.443   -63 35 11.98  .16685 1.1323 131.9 19.9  35d 156
2026 08 07 07  20 09 12.115   -63 35 31.31  .16762 1.1329 131.8 19.9  35d 156
2026 08 07 08  20 09 18.734   -63 35 50.33  .16839 1.1334 131.8 19.9  35d 156
2026 08 07 09  20 09 25.301   -63 36 09.02  .16916 1.1339 131.8 20.0  35d 156
2026 08 07 10  20 09 31.817   -63 36 27.41  .16993 1.1344 131.8 20.0  35d 156
2026 08 07 11  20 09 38.282   -63 36 45.49  .17070 1.1350 131.8 20.0  35d 156
2026 08 07 12  20 09 44.698   -63 37 03.27  .17147 1.1355 131.7 20.0  36d 156
2026 08 07 13  20 09 51.064   -63 37 20.75  .17224 1.1360 131.7 20.0  36d 156
2026 08 07 14  20 09 57.381   -63 37 37.94  .17300 1.1366 131.7 20.0  36d 156
2026 08 07 15  20 10 03.651   -63 37 54.83  .17377 1.1371 131.7 20.0  36d 156
2026 08 07 16  20 10 09.873   -63 38 11.44  .17454 1.1376 131.7 20.0  36d 156
2026 08 07 17  20 10 16.048   -63 38 27.76  .17531 1.1382 131.7 20.0  36d 156
2026 08 07 18  20 10 22.177   -63 38 43.80  .17608 1.1387 131.6 20.1  36d 156
2026 08 07 19  20 10 28.260   -63 38 59.57  .17685 1.1392 131.6 20.1  36d 156
2026 08 07 20  20 10 34.299   -63 39 15.06  .17762 1.1398 131.6 20.1  36d 156
2026 08 07 21  20 10 40.293   -63 39 30.28  .17839 1.1403 131.6 20.1  36d 156
2026 08 07 22  20 10 46.243   -63 39 45.23  .17916 1.1408 131.6 20.1  36d 156
2026 08 07 23  20 10 52.150   -63 39 59.91  .17993 1.1414 131.5 20.1  36d 156
2026 08 08 00  20 10 58.015   -63 40 14.34  .18070 1.1419 131.5 20.1  36d 156
2026 08 08 01  20 11 03.837   -63 40 28.51  .18147 1.1424 131.5 20.1  36d 156
2026 08 08 02  20 11 09.617   -63 40 42.42  .18224 1.1430 131.5 20.1  36d 156
2026 08 08 03  20 11 15.356   -63 40 56.08  .18301 1.1435 131.5 20.1  36d 156
2026 08 08 04  20 11 21.054   -63 41 09.49  .18378 1.1440 131.5 20.2  36d 156
2026 08 08 05  20 11 26.713   -63 41 22.65  .18455 1.1446 131.4 20.2  36d 156
2026 08 08 06  20 11 32.332   -63 41 35.57  .18532 1.1451 131.4 20.2  37d 156
2026 08 08 07  20 11 37.911   -63 41 48.25  .18609 1.1456 131.4 20.2  37d 156
2026 08 08 08  20 11 43.452   -63 42 00.69  .18686 1.1461 131.4 20.2  37d 156
2026 08 08 09  20 11 48.955   -63 42 12.89  .18763 1.1467 131.4 20.2  37d 156
2026 08 08 10  20 11 54.420   -63 42 24.86  .18840 1.1472 131.4 20.2  37d 156
2026 08 08 11  20 11 59.847   -63 42 36.60  .18917 1.1477 131.3 20.2  37d 156
2026 08 08 12  20 12 05.238   -63 42 48.11  .18994 1.1483 131.3 20.2  37d 156
2026 08 08 13  20 12 10.593   -63 42 59.39  .19071 1.1488 131.3 20.2  37d 156
2026 08 08 14  20 12 15.911   -63 43 10.45  .19148 1.1493 131.3 20.2  37d 156
2026 08 08 15  20 12 21.194   -63 43 21.29  .19225 1.1499 131.3 20.3  37d 156
2026 08 08 16  20 12 26.442   -63 43 31.91  .19302 1.1504 131.3 20.3  37d 156
2026 08 08 17  20 12 31.656   -63 43 42.32  .19379 1.1509 131.2 20.3  37d 156
2026 08 08 18  20 12 36.835   -63 43 52.51  .19456 1.1515 131.2 20.3  37d 156
2026 08 08 19  20 12 41.980   -63 44 02.49  .19533 1.1520 131.2 20.3  37d 156
2026 08 08 20  20 12 47.092   -63 44 12.26  .19610 1.1525 131.2 20.3  37d 156
2026 08 08 21  20 12 52.171   -63 44 21.82  .19687 1.1531 131.2 20.3  37d 156
2026 08 08 22  20 12 57.218   -63 44 31.17  .19764 1.1536 131.2 20.3  37d 156
2026 08 08 23  20 13 02.232   -63 44 40.33  .19841 1.1541 131.1 20.3  37d 156
2026 08 09 00  20 13 07.214   -63 44 49.28  .19918 1.1547 131.1 20.3  37d 156
2026 08 09 01  20 13 12.165   -63 44 58.03  .19996 1.1552 131.1 20.4  37d 156
2026 08 09 02  20 13 17.084   -63 45 06.59  .20073 1.1557 131.1 20.4  37d 156
2026 08 09 03  20 13 21.973   -63 45 14.95  .20150 1.1563 131.1 20.4  37d 156